Location: Izdebno
(52.6670°N, 16.2170°E)
Time: 10:36:30
(UTC+01:00)

Transit 2A - Pass Details

Date: 07 February 2023
Orbit: 591 x 964 km, 66.7° (Epoch: 21 March)

Event Time Altitude Azimuth Distance (km) Brightness Sun altitude
Rises 22:02:16 0° 314° (NW) 3,375 10.1 -44.9°
Reaches altitude 10° 22:04:59 10° 326° (NW) 2,500 9.2 -45.2°
Enters shadow 22:05:47 14° 331° (NNW) 2,271 8.9 -45.3°
Maximum altitude 22:10:02 29° 26° (NNE) 1,600 - -45.7°
Drops below altitude 10° 22:15:24 10° 85° (E) 2,662 - -46.3°
Sets 22:18:23 0° 96° (E) 3,632 - -46.6°
